Year,Month,Day,Hour,Minute,Value (Times are PST for windspeed in km/hr)
2010,11,16,00,00,22.00
2010,11,16,00,01,21.70
2010,11,16,00,02,19.50
2010,11,16,00,03,19.60
2010,11,16,00,04,10.50
2010,11,16,00,05,15.00
2010,11,16,00,06,9.70
2010,11,16,00,07,14.30
2010,11,16,00,08,16.20
2010,11,16,00,09,9.80
2010,11,16,00,10,17.60
2010,11,16,00,11,19.50
2010,11,16,00,12,12.30
2010,11,16,00,13,11.80
2010,11,16,00,14,15.00
2010,11,16,00,15,14.20
2010,11,16,00,16,8.60
2010,11,16,00,17,17.20
2010,11,16,00,18,14.80
2010,11,16,00,19,10.50
2010,11,16,00,20,13.60
2010,11,16,00,21,26.70
2010,11,16,00,22,17.90
2010,11,16,00,23,16.80
2010,11,16,00,24,20.70
2010,11,16,00,25,13.30
2010,11,16,00,26,12.00
2010,11,16,00,27,12.00
2010,11,16,00,28,8.70
2010,11,16,00,29,16.40
2010,11,16,00,30,16.30
2010,11,16,00,31,15.20
2010,11,16,00,32,10.50
2010,11,16,00,33,7.00
2010,11,16,00,34,12.40
2010,11,16,00,35,13.50
2010,11,16,00,36,18.20
2010,11,16,00,37,19.80
2010,11,16,00,38,13.80
2010,11,16,00,39,8.10
2010,11,16,00,40,20.00
2010,11,16,00,41,14.90
2010,11,16,00,42,12.80
2010,11,16,00,43,14.00
2010,11,16,00,44,8.00
2010,11,16,00,45,16.80
2010,11,16,00,46,15.90
2010,11,16,00,47,8.80
2010,11,16,00,48,12.00
2010,11,16,00,49,17.20
2010,11,16,00,50,16.20
2010,11,16,00,51,11.60
2010,11,16,00,52,12.40
2010,11,16,00,53,16.70
2010,11,16,00,54,8.70
2010,11,16,00,55,6.20
2010,11,16,00,56,8.20
2010,11,16,00,57,10.80
2010,11,16,00,58,10.60
2010,11,16,00,59,8.50
2010,11,16,01,00,14.40
2010,11,16,01,01,11.20
2010,11,16,01,02,7.80
2010,11,16,01,03,10.90
2010,11,16,01,04,7.70
2010,11,16,01,05,8.10
2010,11,16,01,06,6.10
2010,11,16,01,07,4.00
2010,11,16,01,08,7.40
2010,11,16,01,09,6.70
2010,11,16,01,10,6.00
2010,11,16,01,11,4.70
2010,11,16,01,12,6.50
2010,11,16,01,13,3.50
2010,11,16,01,14,3.30
2010,11,16,01,15,1.30
2010,11,16,01,16,0.10
2010,11,16,01,17,3.90
2010,11,16,01,18,2.90
2010,11,16,01,19,2.90
2010,11,16,01,20,2.90
2010,11,16,01,21,3.80
2010,11,16,01,22,4.20
2010,11,16,01,23,2.00
2010,11,16,01,24,1.70
2010,11,16,01,25,4.30
2010,11,16,01,26,4.20
2010,11,16,01,27,3.00
2010,11,16,01,28,4.90
2010,11,16,01,29,3.60
2010,11,16,01,30,6.10
2010,11,16,01,31,4.70
2010,11,16,01,32,1.20
2010,11,16,01,33,1.30
2010,11,16,01,34,1.60
2010,11,16,01,35,2.60
2010,11,16,01,36,2.00
2010,11,16,01,37,1.10
2010,11,16,01,38,0.90
2010,11,16,01,39,2.50
2010,11,16,01,40,0.60
2010,11,16,01,41,0.20
2010,11,16,01,42,0.10
2010,11,16,01,43,0.20
2010,11,16,01,44,0.40
2010,11,16,01,45,0.30
2010,11,16,01,46,0.40
2010,11,16,01,47,0.80
2010,11,16,01,48,0.00
2010,11,16,01,49,0.00
2010,11,16,01,50,0.30
2010,11,16,01,51,0.00
2010,11,16,01,52,0.00
2010,11,16,01,53,0.00
2010,11,16,01,54,0.10
2010,11,16,01,55,0.10
2010,11,16,01,56,0.10
2010,11,16,01,57,0.20
2010,11,16,01,58,0.10
2010,11,16,01,59,0.00
2010,11,16,02,00,0.20
2010,11,16,02,01,0.10
2010,11,16,02,02,0.00
2010,11,16,02,03,0.00
2010,11,16,02,04,0.00
2010,11,16,02,05,0.00
2010,11,16,02,06,0.00
2010,11,16,02,07,2.20
2010,11,16,02,08,1.00
2010,11,16,02,09,0.10
2010,11,16,02,10,0.50
2010,11,16,02,11,0.00
2010,11,16,02,12,0.00
2010,11,16,02,13,1.00
2010,11,16,02,14,0.00
2010,11,16,02,15,0.10
2010,11,16,02,16,0.00
2010,11,16,02,17,0.00
2010,11,16,02,18,0.00
2010,11,16,02,19,1.60
2010,11,16,02,20,1.50
2010,11,16,02,21,0.80
2010,11,16,02,22,0.20
2010,11,16,02,23,0.00
2010,11,16,02,24,0.00
2010,11,16,02,25,0.30
2010,11,16,02,26,1.30
2010,11,16,02,27,0.90
2010,11,16,02,28,1.40
2010,11,16,02,29,2.50
2010,11,16,02,30,0.00
2010,11,16,02,31,0.80
2010,11,16,02,32,2.30
2010,11,16,02,33,1.10
2010,11,16,02,34,3.00
2010,11,16,02,35,1.70
2010,11,16,02,36,2.30
2010,11,16,02,37,0.10
2010,11,16,02,38,2.50
2010,11,16,02,39,3.70
2010,11,16,02,40,8.80
2010,11,16,02,41,3.10
2010,11,16,02,42,2.40
2010,11,16,02,43,2.00
2010,11,16,02,44,0.10
2010,11,16,02,45,4.40
2010,11,16,02,46,13.40
2010,11,16,02,47,3.10
2010,11,16,02,48,3.90
2010,11,16,02,49,7.50
2010,11,16,02,50,3.40
2010,11,16,02,51,4.80
2010,11,16,02,52,5.20
2010,11,16,02,53,6.30
2010,11,16,02,54,6.40
2010,11,16,02,55,2.70
2010,11,16,02,56,2.90
2010,11,16,02,57,1.20
2010,11,16,02,58,5.80
2010,11,16,02,59,5.30
2010,11,16,03,00,6.10
2010,11,16,03,01,2.90
2010,11,16,03,02,6.70
2010,11,16,03,03,3.40
2010,11,16,03,04,5.40
2010,11,16,03,05,4.40
2010,11,16,03,06,4.90
2010,11,16,03,07,4.80
2010,11,16,03,08,4.80
2010,11,16,03,09,4.80
2010,11,16,03,10,4.80
2010,11,16,03,11,2.30
2010,11,16,03,12,3.30
2010,11,16,03,13,0.80
2010,11,16,03,14,1.30
2010,11,16,03,15,2.80
2010,11,16,03,16,4.20
2010,11,16,03,17,2.40
2010,11,16,03,18,0.40
2010,11,16,03,19,0.00
2010,11,16,03,20,0.00
2010,11,16,03,21,1.00
2010,11,16,03,22,0.20
2010,11,16,03,23,0.00
2010,11,16,03,24,0.10
2010,11,16,03,25,1.40
2010,11,16,03,26,0.60
2010,11,16,03,27,0.00
2010,11,16,03,28,0.00
2010,11,16,03,29,0.00
2010,11,16,03,30,0.00
2010,11,16,03,31,0.00
2010,11,16,03,32,1.10
2010,11,16,03,33,1.00
2010,11,16,03,34,0.60
2010,11,16,03,35,0.10
2010,11,16,03,36,0.00
2010,11,16,03,37,0.30
2010,11,16,03,38,0.60
2010,11,16,03,39,0.00
2010,11,16,03,40,0.00
2010,11,16,03,41,0.00
2010,11,16,03,42,0.00
2010,11,16,03,43,0.00
2010,11,16,03,44,0.00
2010,11,16,03,45,1.00
2010,11,16,03,46,0.20
2010,11,16,03,47,0.00
2010,11,16,03,48,0.00
2010,11,16,03,49,0.10
2010,11,16,03,50,0.00
2010,11,16,03,51,0.00
2010,11,16,03,52,0.10
2010,11,16,03,53,0.00
2010,11,16,03,54,0.00
2010,11,16,03,55,0.40
2010,11,16,03,56,5.40
2010,11,16,03,57,3.40
2010,11,16,03,58,0.20
2010,11,16,03,59,0.00
2010,11,16,04,00,0.00
2010,11,16,04,01,0.10
2010,11,16,04,02,0.00
2010,11,16,04,03,0.10
2010,11,16,04,04,0.30
2010,11,16,04,05,0.00
2010,11,16,04,06,0.00
2010,11,16,04,07,0.10
2010,11,16,04,08,0.50
2010,11,16,04,09,2.90
2010,11,16,04,10,6.20
2010,11,16,04,11,1.80
2010,11,16,04,12,0.20
2010,11,16,04,13,0.30
2010,11,16,04,14,0.60
2010,11,16,04,15,0.10
2010,11,16,04,16,1.00
2010,11,16,04,17,1.80
2010,11,16,04,18,2.50
2010,11,16,04,19,0.40
2010,11,16,04,20,0.10
2010,11,16,04,21,0.10
2010,11,16,04,22,0.00
2010,11,16,04,23,0.00
2010,11,16,04,24,0.90
2010,11,16,04,25,0.40
2010,11,16,04,26,0.60
2010,11,16,04,27,0.10
2010,11,16,04,28,0.00
2010,11,16,04,29,0.60
2010,11,16,04,30,2.00
2010,11,16,04,31,2.80
2010,11,16,04,32,2.20
2010,11,16,04,33,3.00
2010,11,16,04,34,2.70
2010,11,16,04,35,3.60
2010,11,16,04,36,3.60
2010,11,16,04,37,2.80
2010,11,16,04,38,2.70
2010,11,16,04,39,3.40
2010,11,16,04,40,2.70
2010,11,16,04,41,3.90
2010,11,16,04,42,4.00
2010,11,16,04,43,4.10
2010,11,16,04,44,2.70
2010,11,16,04,45,2.30
2010,11,16,04,46,2.40
2010,11,16,04,47,4.60
2010,11,16,04,48,3.50
2010,11,16,04,49,3.10
2010,11,16,04,50,1.80
2010,11,16,04,51,0.10
2010,11,16,04,52,0.20
2010,11,16,04,53,0.00
2010,11,16,04,54,0.10
2010,11,16,04,55,0.00
2010,11,16,04,56,0.00
2010,11,16,04,57,0.00
2010,11,16,04,58,0.00
2010,11,16,04,59,0.00
2010,11,16,05,00,0.00
2010,11,16,05,01,0.10
2010,11,16,05,02,0.00
2010,11,16,05,03,0.00
2010,11,16,05,04,0.00
2010,11,16,05,05,0.10
2010,11,16,05,06,0.10
2010,11,16,05,07,0.60
2010,11,16,05,08,1.80
2010,11,16,05,09,2.00
2010,11,16,05,10,1.80
2010,11,16,05,11,1.60
2010,11,16,05,12,1.90
2010,11,16,05,13,3.00
2010,11,16,05,14,4.20
2010,11,16,05,15,3.90
2010,11,16,05,16,3.10
2010,11,16,05,17,2.70
2010,11,16,05,18,2.20
2010,11,16,05,19,1.10
2010,11,16,05,20,1.70
2010,11,16,05,21,1.10
2010,11,16,05,22,0.00
2010,11,16,05,23,0.20
2010,11,16,05,24,0.20
2010,11,16,05,25,0.30
2010,11,16,05,26,0.70
2010,11,16,05,27,0.70
2010,11,16,05,28,1.00
2010,11,16,05,29,1.50
2010,11,16,05,30,1.80
2010,11,16,05,31,3.00
2010,11,16,05,32,4.10
2010,11,16,05,33,3.70
2010,11,16,05,34,3.10
2010,11,16,05,35,3.00
2010,11,16,05,36,2.70
2010,11,16,05,37,3.20
2010,11,16,05,38,2.60
2010,11,16,05,39,3.20
2010,11,16,05,40,3.50
2010,11,16,05,41,3.90
2010,11,16,05,42,3.30
2010,11,16,05,43,3.70
2010,11,16,05,44,3.70
2010,11,16,05,45,4.30
2010,11,16,05,46,3.80
2010,11,16,05,47,2.60
2010,11,16,05,48,1.80
2010,11,16,05,49,1.50
2010,11,16,05,50,1.40
2010,11,16,05,51,1.90
2010,11,16,05,52,1.10
2010,11,16,05,53,1.00
2010,11,16,05,54,0.20
2010,11,16,05,55,0.20
2010,11,16,05,56,0.00
2010,11,16,05,57,0.20
2010,11,16,05,58,2.10
2010,11,16,05,59,0.60
2010,11,16,06,00,1.70
2010,11,16,06,01,1.60
2010,11,16,06,02,1.30
2010,11,16,06,03,1.00
2010,11,16,06,04,0.20
2010,11,16,06,05,1.60
2010,11,16,06,06,1.60
2010,11,16,06,07,1.30
2010,11,16,06,08,3.00
2010,11,16,06,09,2.60
2010,11,16,06,10,3.00
2010,11,16,06,11,2.60
2010,11,16,06,12,2.10
2010,11,16,06,13,0.60
2010,11,16,06,14,0.30
2010,11,16,06,15,0.20
2010,11,16,06,16,0.70
2010,11,16,06,17,0.80
2010,11,16,06,18,0.70
2010,11,16,06,19,0.50
2010,11,16,06,20,0.00
2010,11,16,06,21,0.00
2010,11,16,06,22,0.10
2010,11,16,06,23,0.70
2010,11,16,06,24,0.60
2010,11,16,06,25,0.20
2010,11,16,06,26,0.00
2010,11,16,06,27,0.00
2010,11,16,06,28,0.80
2010,11,16,06,29,3.90
2010,11,16,06,30,2.90
2010,11,16,06,31,2.20
2010,11,16,06,32,1.20
2010,11,16,06,33,2.10
2010,11,16,06,34,2.60
2010,11,16,06,35,2.00
2010,11,16,06,36,0.90
2010,11,16,06,37,0.10
2010,11,16,06,38,0.50
2010,11,16,06,39,0.00
2010,11,16,06,40,0.00
2010,11,16,06,41,1.50
2010,11,16,06,42,2.40
2010,11,16,06,43,1.80
2010,11,16,06,44,2.30
2010,11,16,06,45,1.70
2010,11,16,06,46,2.80
2010,11,16,06,47,2.90
2010,11,16,06,48,2.00
2010,11,16,06,49,3.10
2010,11,16,06,50,3.20
2010,11,16,06,51,1.70
2010,11,16,06,52,2.10
2010,11,16,06,53,2.20
2010,11,16,06,54,2.60
2010,11,16,06,55,3.60
2010,11,16,06,56,3.60
2010,11,16,06,57,3.60
2010,11,16,06,58,5.20
2010,11,16,06,59,6.40
2010,11,16,07,00,7.30
2010,11,16,07,01,4.50
2010,11,16,07,02,5.00
2010,11,16,07,03,4.40
2010,11,16,07,04,5.60
2010,11,16,07,05,6.20
2010,11,16,07,06,4.20
2010,11,16,07,07,4.00
2010,11,16,07,08,4.90
2010,11,16,07,09,4.40
2010,11,16,07,10,5.80
2010,11,16,07,11,5.00
2010,11,16,07,12,4.20
2010,11,16,07,13,3.80
2010,11,16,07,14,3.80
2010,11,16,07,15,1.00
2010,11,16,07,16,1.80
2010,11,16,07,17,4.30
2010,11,16,07,18,7.00
2010,11,16,07,19,6.40
2010,11,16,07,20,6.40
2010,11,16,07,21,5.50
2010,11,16,07,22,5.20
2010,11,16,07,23,7.00
2010,11,16,07,24,6.40
2010,11,16,07,25,5.60
2010,11,16,07,26,2.60
2010,11,16,07,27,1.50
2010,11,16,07,28,1.90
2010,11,16,07,29,2.50
2010,11,16,07,30,5.30
2010,11,16,07,31,5.10
2010,11,16,07,32,4.10
2010,11,16,07,33,3.70
2010,11,16,07,34,4.70
2010,11,16,07,35,5.20
2010,11,16,07,36,5.30
2010,11,16,07,37,4.30
2010,11,16,07,38,4.10
2010,11,16,07,39,2.30
2010,11,16,07,40,0.40
2010,11,16,07,41,1.90
2010,11,16,07,42,2.30
2010,11,16,07,43,4.20
2010,11,16,07,44,3.40
2010,11,16,07,45,2.50
2010,11,16,07,46,1.90
2010,11,16,07,47,3.50
2010,11,16,07,48,5.90
2010,11,16,07,49,6.50
2010,11,16,07,50,4.30
2010,11,16,07,51,4.70
2010,11,16,07,52,2.90
2010,11,16,07,53,3.30
2010,11,16,07,54,4.50
2010,11,16,07,55,6.50
2010,11,16,07,56,1.80
2010,11,16,07,57,3.40
2010,11,16,07,58,4.00
2010,11,16,07,59,2.10
2010,11,16,08,00,4.10
2010,11,16,08,01,4.70
2010,11,16,08,02,4.50
2010,11,16,08,03,4.70
2010,11,16,08,04,5.30
2010,11,16,08,05,3.20
2010,11,16,08,06,2.40
2010,11,16,08,07,2.00
2010,11,16,08,08,1.80
2010,11,16,08,09,1.30
2010,11,16,08,10,2.60
2010,11,16,08,11,1.70
2010,11,16,08,12,1.00
2010,11,16,08,13,0.00
2010,11,16,08,14,0.00
2010,11,16,08,15,0.00
2010,11,16,08,16,0.00
2010,11,16,08,17,0.20
2010,11,16,08,18,0.00
2010,11,16,08,19,0.00
2010,11,16,08,20,0.00
2010,11,16,08,21,0.00
2010,11,16,08,22,0.00
2010,11,16,08,23,0.00
2010,11,16,08,24,0.00
2010,11,16,08,25,0.80
2010,11,16,08,26,1.90
2010,11,16,08,27,2.60
2010,11,16,08,28,2.50
2010,11,16,08,29,1.10
2010,11,16,08,30,1.00
2010,11,16,08,31,1.60
2010,11,16,08,32,3.00
2010,11,16,08,33,2.90
2010,11,16,08,34,5.50
2010,11,16,08,35,5.80
2010,11,16,08,36,6.00
2010,11,16,08,37,6.00
2010,11,16,08,38,6.20
2010,11,16,08,39,4.60
2010,11,16,08,40,4.70
2010,11,16,08,41,5.70
2010,11,16,08,42,8.00
2010,11,16,08,43,7.40
2010,11,16,08,44,7.20
2010,11,16,08,45,7.50
2010,11,16,08,46,6.60
2010,11,16,08,47,7.00
2010,11,16,08,48,7.50
2010,11,16,08,49,5.40
2010,11,16,08,50,5.60
2010,11,16,08,51,7.10
2010,11,16,08,52,7.00
2010,11,16,08,53,5.20
2010,11,16,08,54,4.70
2010,11,16,08,55,2.50
2010,11,16,08,56,2.80
2010,11,16,08,57,1.50
2010,11,16,08,58,0.50
2010,11,16,08,59,0.00
2010,11,16,09,00,0.40
2010,11,16,09,01,0.10
2010,11,16,09,02,0.80
2010,11,16,09,03,0.20
2010,11,16,09,04,1.30
2010,11,16,09,05,2.80
2010,11,16,09,06,2.00
2010,11,16,09,07,0.90
2010,11,16,09,08,0.00
2010,11,16,09,09,0.00
2010,11,16,09,10,0.00
2010,11,16,09,11,0.00
2010,11,16,09,12,0.00
2010,11,16,09,13,0.00
2010,11,16,09,14,1.00
2010,11,16,09,15,0.00
2010,11,16,09,16,0.00
2010,11,16,09,17,0.10
2010,11,16,09,18,2.40
2010,11,16,09,19,1.70
2010,11,16,09,20,2.60
2010,11,16,09,21,1.70
2010,11,16,09,22,0.00
2010,11,16,09,23,0.30
2010,11,16,09,24,1.00
2010,11,16,09,25,1.80
2010,11,16,09,26,1.10
2010,11,16,09,27,1.40
2010,11,16,09,28,3.20
2010,11,16,09,29,3.20
2010,11,16,09,30,4.20
2010,11,16,09,31,1.30
2010,11,16,09,32,3.10
2010,11,16,09,33,3.40
2010,11,16,09,34,5.10
2010,11,16,09,35,2.70
2010,11,16,09,36,3.90
2010,11,16,09,37,3.90
2010,11,16,09,38,6.30
2010,11,16,09,39,6.70
2010,11,16,09,40,6.50
2010,11,16,09,41,5.80
2010,11,16,09,42,6.60
2010,11,16,09,43,5.50
2010,11,16,09,44,4.40
2010,11,16,09,45,7.80
2010,11,16,09,46,5.10
2010,11,16,09,47,2.50
2010,11,16,09,48,3.60
2010,11,16,09,49,2.20
2010,11,16,09,50,5.60
2010,11,16,09,51,5.20
2010,11,16,09,52,6.90
2010,11,16,09,53,5.60
2010,11,16,09,54,10.80
2010,11,16,09,55,8.00
2010,11,16,09,56,5.60
2010,11,16,09,57,7.50
2010,11,16,09,58,5.50
2010,11,16,09,59,5.00
2010,11,16,10,00,7.40
2010,11,16,10,01,6.00
2010,11,16,10,02,4.50
2010,11,16,10,03,11.00
2010,11,16,10,04,10.70
2010,11,16,10,05,5.70
2010,11,16,10,06,8.10
2010,11,16,10,07,6.00
2010,11,16,10,08,8.90
2010,11,16,10,09,8.00
2010,11,16,10,10,10.00
2010,11,16,10,11,7.00
2010,11,16,10,12,8.10
2010,11,16,10,13,7.60
2010,11,16,10,14,7.20
2010,11,16,10,15,8.30
2010,11,16,10,16,6.00
2010,11,16,10,17,6.00
2010,11,16,10,18,5.50
2010,11,16,10,19,3.90
2010,11,16,10,20,4.50
2010,11,16,10,21,4.00
2010,11,16,10,22,6.40
2010,11,16,10,23,4.20
2010,11,16,10,24,5.30
2010,11,16,10,25,5.20
2010,11,16,10,26,4.10
2010,11,16,10,27,5.30
2010,11,16,10,28,2.20
2010,11,16,10,29,5.80
2010,11,16,10,30,3.90
2010,11,16,10,31,0.40
2010,11,16,10,32,4.40
2010,11,16,10,33,6.40
2010,11,16,10,34,5.20
2010,11,16,10,35,5.20
2010,11,16,10,36,1.90
2010,11,16,10,37,2.30
2010,11,16,10,38,4.20
2010,11,16,10,39,3.00
2010,11,16,10,40,1.40
2010,11,16,10,41,0.40
2010,11,16,10,42,2.10
2010,11,16,10,43,3.10
2010,11,16,10,44,2.60
2010,11,16,10,45,0.00
2010,11,16,10,46,0.10
2010,11,16,10,47,0.00
2010,11,16,10,48,4.50
2010,11,16,10,49,2.10
2010,11,16,10,50,3.70
2010,11,16,10,51,4.90
2010,11,16,10,52,3.60
2010,11,16,10,53,10.90
2010,11,16,10,54,7.80
2010,11,16,10,55,9.70
2010,11,16,10,56,6.00
2010,11,16,10,57,7.20
2010,11,16,10,58,11.00
2010,11,16,10,59,8.80
2010,11,16,11,00,7.60
2010,11,16,11,01,9.10
2010,11,16,11,02,8.10
2010,11,16,11,03,5.90
2010,11,16,11,04,6.50
2010,11,16,11,05,9.00
2010,11,16,11,06,8.30
2010,11,16,11,07,8.70
2010,11,16,11,08,7.50
2010,11,16,11,09,7.60
2010,11,16,11,10,8.60
2010,11,16,11,11,9.60
2010,11,16,11,12,9.70
2010,11,16,11,13,9.30
2010,11,16,11,14,7.20
2010,11,16,11,15,7.80
2010,11,16,11,16,4.80
2010,11,16,11,17,8.40
2010,11,16,11,18,8.50
2010,11,16,11,19,7.50
2010,11,16,11,20,10.00
2010,11,16,11,21,9.20
2010,11,16,11,22,4.90
2010,11,16,11,23,7.60
2010,11,16,11,24,5.60
2010,11,16,11,25,9.00
2010,11,16,11,26,6.10
2010,11,16,11,27,4.30
2010,11,16,11,28,7.10
2010,11,16,11,29,6.90
2010,11,16,11,30,8.70
2010,11,16,11,31,10.60
2010,11,16,11,32,12.10
2010,11,16,11,33,11.50
2010,11,16,11,34,10.40
2010,11,16,11,35,13.60
2010,11,16,11,36,14.00
2010,11,16,11,37,9.70
2010,11,16,11,38,6.80
2010,11,16,11,39,5.50
2010,11,16,11,40,6.50
2010,11,16,11,41,10.10
2010,11,16,11,42,8.90
2010,11,16,11,43,6.00
2010,11,16,11,44,6.20
2010,11,16,11,45,6.30
2010,11,16,11,46,5.40
2010,11,16,11,47,4.20
2010,11,16,11,48,3.70
2010,11,16,11,49,1.90
2010,11,16,11,50,2.80
2010,11,16,11,51,8.90
2010,11,16,11,52,7.70
2010,11,16,11,53,7.10
2010,11,16,11,54,4.20
2010,11,16,11,55,5.60
2010,11,16,11,56,6.00
2010,11,16,11,57,8.80
2010,11,16,11,58,9.40
2010,11,16,11,59,8.50
2010,11,16,12,00,7.60
2010,11,16,12,01,5.90
2010,11,16,12,02,5.40
2010,11,16,12,03,4.50
2010,11,16,12,04,1.80
2010,11,16,12,05,6.30
2010,11,16,12,06,3.80
2010,11,16,12,07,4.00
2010,11,16,12,08,1.70
2010,11,16,12,09,7.80
2010,11,16,12,10,6.00
2010,11,16,12,11,5.50
2010,11,16,12,12,4.30
2010,11,16,12,13,4.70
2010,11,16,12,14,2.00
2010,11,16,12,15,4.30
2010,11,16,12,16,7.10
2010,11,16,12,17,7.90
2010,11,16,12,18,2.70
2010,11,16,12,19,4.70
2010,11,16,12,20,4.50
2010,11,16,12,21,7.80
2010,11,16,12,22,4.10
2010,11,16,12,23,4.70
2010,11,16,12,24,7.20
2010,11,16,12,25,6.60
2010,11,16,12,26,7.30
2010,11,16,12,27,3.90
2010,11,16,12,28,5.30
2010,11,16,12,29,4.70
2010,11,16,12,30,4.40
2010,11,16,12,31,4.20
2010,11,16,12,32,1.20
2010,11,16,12,33,0.30
2010,11,16,12,34,2.20
2010,11,16,12,35,1.90
2010,11,16,12,36,0.10
2010,11,16,12,37,0.00
2010,11,16,12,38,0.00
2010,11,16,12,39,0.10
2010,11,16,12,40,0.00
2010,11,16,12,41,1.50
2010,11,16,12,42,3.50
2010,11,16,12,43,3.10
2010,11,16,12,44,3.10
2010,11,16,12,45,2.00
2010,11,16,12,46,3.70
2010,11,16,12,47,1.50
2010,11,16,12,48,1.30
2010,11,16,12,49,1.40
2010,11,16,12,50,1.90
2010,11,16,12,51,2.90
2010,11,16,12,52,4.50
2010,11,16,12,53,3.60
2010,11,16,12,54,2.90
2010,11,16,12,55,4.20
2010,11,16,12,56,4.30
2010,11,16,12,57,2.90
2010,11,16,12,58,0.70
2010,11,16,12,59,1.70
2010,11,16,13,00,1.40
2010,11,16,13,01,1.10
2010,11,16,13,02,0.80
2010,11,16,13,03,2.60
2010,11,16,13,04,1.40
2010,11,16,13,05,2.10
2010,11,16,13,06,0.50
2010,11,16,13,07,0.60
2010,11,16,13,08,0.00
2010,11,16,13,09,0.20
2010,11,16,13,10,2.00
2010,11,16,13,11,2.70
2010,11,16,13,12,0.00
2010,11,16,13,13,0.20
2010,11,16,13,14,1.30
2010,11,16,13,15,0.00
2010,11,16,13,16,0.00
2010,11,16,13,17,0.00
2010,11,16,13,18,0.00
2010,11,16,13,19,0.00
2010,11,16,13,20,0.00
2010,11,16,13,21,0.20
2010,11,16,13,22,0.50
2010,11,16,13,23,1.60
2010,11,16,13,24,0.30
2010,11,16,13,25,0.20
2010,11,16,13,26,1.90
2010,11,16,13,27,0.20
2010,11,16,13,28,1.70
2010,11,16,13,29,0.80
2010,11,16,13,30,0.10
2010,11,16,13,31,3.50
2010,11,16,13,32,4.20
2010,11,16,13,33,3.20
2010,11,16,13,34,3.10
2010,11,16,13,35,0.00
2010,11,16,13,36,0.00
2010,11,16,13,37,0.20
2010,11,16,13,38,0.10
2010,11,16,13,39,1.10
2010,11,16,13,40,2.00
2010,11,16,13,41,2.00
2010,11,16,13,42,2.30
2010,11,16,13,43,2.70
2010,11,16,13,44,2.20
2010,11,16,13,45,1.00
2010,11,16,13,46,2.00
2010,11,16,13,47,1.60
2010,11,16,13,48,0.90
2010,11,16,13,49,1.40
2010,11,16,13,50,0.00
2010,11,16,13,51,0.10
2010,11,16,13,52,1.50
2010,11,16,13,53,0.70
2010,11,16,13,54,0.70
2010,11,16,13,55,1.10
2010,11,16,13,56,1.20
2010,11,16,13,57,0.20
2010,11,16,13,58,0.30
2010,11,16,13,59,2.90
2010,11,16,14,00,1.40
2010,11,16,14,01,1.90
2010,11,16,14,02,1.10
2010,11,16,14,03,0.00
2010,11,16,14,04,1.00
2010,11,16,14,05,1.50
2010,11,16,14,06,1.50
2010,11,16,14,07,0.50
2010,11,16,14,08,1.00
2010,11,16,14,09,3.40
2010,11,16,14,10,2.60
2010,11,16,14,11,1.50
2010,11,16,14,12,1.20
2010,11,16,14,13,1.40
2010,11,16,14,14,0.20
2010,11,16,14,15,0.10
2010,11,16,14,16,1.40
2010,11,16,14,17,0.20
2010,11,16,14,18,2.40
2010,11,16,14,19,2.80
2010,11,16,14,20,1.60
2010,11,16,14,21,1.90
2010,11,16,14,22,2.60
2010,11,16,14,23,2.80
2010,11,16,14,24,2.50
2010,11,16,14,25,1.70
2010,11,16,14,26,0.80
2010,11,16,14,27,0.50
2010,11,16,14,28,0.60
2010,11,16,14,29,1.70
2010,11,16,14,30,3.20
2010,11,16,14,31,2.20
2010,11,16,14,32,2.20
2010,11,16,14,33,1.70
2010,11,16,14,34,1.40
2010,11,16,14,35,0.20
2010,11,16,14,36,1.50
2010,11,16,14,37,0.50
2010,11,16,14,38,0.30
2010,11,16,14,39,4.20
2010,11,16,14,40,1.30
2010,11,16,14,41,1.00
2010,11,16,14,42,1.20
2010,11,16,14,43,2.60
2010,11,16,14,44,0.60
2010,11,16,14,45,2.30
2010,11,16,14,46,1.30
2010,11,16,14,47,1.10
2010,11,16,14,48,3.10
2010,11,16,14,49,0.70
2010,11,16,14,50,2.10
2010,11,16,14,51,1.20
2010,11,16,14,52,1.00
2010,11,16,14,53,0.70
2010,11,16,14,54,0.50
2010,11,16,14,55,2.00
2010,11,16,14,56,2.20
2010,11,16,14,57,1.50
2010,11,16,14,58,0.10
2010,11,16,14,59,1.80
2010,11,16,15,00,1.40
2010,11,16,15,01,0.10
2010,11,16,15,02,0.10
2010,11,16,15,03,0.40
2010,11,16,15,04,0.20
2010,11,16,15,05,0.00
2010,11,16,15,06,0.00
2010,11,16,15,07,0.10
2010,11,16,15,08,0.00
2010,11,16,15,09,0.00
2010,11,16,15,10,0.00
2010,11,16,15,11,0.00
2010,11,16,15,12,0.00
2010,11,16,15,13,0.00
2010,11,16,15,14,0.00
2010,11,16,15,15,0.00
2010,11,16,15,16,0.00
2010,11,16,15,17,0.00
2010,11,16,15,18,0.00
2010,11,16,15,19,0.00
2010,11,16,15,20,0.00
2010,11,16,15,21,0.00
2010,11,16,15,22,0.20
2010,11,16,15,23,1.20
2010,11,16,15,24,0.30
2010,11,16,15,25,0.20
2010,11,16,15,26,0.00
2010,11,16,15,27,0.00
2010,11,16,15,28,0.00
2010,11,16,15,29,0.00
2010,11,16,15,30,0.00
2010,11,16,15,31,0.00
2010,11,16,15,32,0.00
2010,11,16,15,33,0.00
2010,11,16,15,34,0.00
2010,11,16,15,35,0.00
2010,11,16,15,36,0.00
2010,11,16,15,37,0.20
2010,11,16,15,38,0.00
2010,11,16,15,39,0.20
2010,11,16,15,40,0.10
2010,11,16,15,41,0.00
2010,11,16,15,42,0.00
2010,11,16,15,43,0.00
2010,11,16,15,44,0.00
2010,11,16,15,45,0.00
2010,11,16,15,46,0.00
2010,11,16,15,47,0.00
2010,11,16,15,48,0.00
2010,11,16,15,49,0.00
2010,11,16,15,50,0.00
2010,11,16,15,51,0.00
2010,11,16,15,52,0.00
2010,11,16,15,53,0.00
2010,11,16,15,54,0.00
2010,11,16,15,55,0.00
2010,11,16,15,56,0.00
2010,11,16,15,57,0.00
2010,11,16,15,58,0.00
2010,11,16,15,59,0.20
2010,11,16,16,00,1.00
2010,11,16,16,01,1.00
2010,11,16,16,02,0.20
2010,11,16,16,03,0.30
2010,11,16,16,04,1.10
2010,11,16,16,05,0.30
2010,11,16,16,06,0.00
2010,11,16,16,07,0.20
2010,11,16,16,08,0.60
2010,11,16,16,09,0.10
2010,11,16,16,10,0.70
2010,11,16,16,11,2.90
2010,11,16,16,12,1.80
2010,11,16,16,13,0.00
2010,11,16,16,14,0.00
2010,11,16,16,15,0.40
2010,11,16,16,16,0.00
2010,11,16,16,17,0.40
2010,11,16,16,18,0.10
2010,11,16,16,19,0.00
2010,11,16,16,20,0.20
2010,11,16,16,21,1.80
2010,11,16,16,22,0.30
2010,11,16,16,23,0.10
2010,11,16,16,24,0.00
2010,11,16,16,25,0.00
2010,11,16,16,26,0.00
2010,11,16,16,27,0.00
2010,11,16,16,28,0.00
2010,11,16,16,29,1.40
2010,11,16,16,30,2.70
2010,11,16,16,31,3.10
2010,11,16,16,32,2.40
2010,11,16,16,33,1.20
2010,11,16,16,34,0.00
2010,11,16,16,35,0.00
2010,11,16,16,36,0.00
2010,11,16,16,37,0.00
2010,11,16,16,38,0.00
2010,11,16,16,39,0.00
2010,11,16,16,40,0.00
2010,11,16,16,41,0.00
2010,11,16,16,42,0.00
2010,11,16,16,43,0.00
2010,11,16,16,44,0.00
2010,11,16,16,45,1.30
2010,11,16,16,46,2.60
2010,11,16,16,47,1.50
2010,11,16,16,48,0.10
2010,11,16,16,49,0.00
2010,11,16,16,50,0.00
2010,11,16,16,51,0.00
2010,11,16,16,52,0.00
2010,11,16,16,53,0.00
2010,11,16,16,54,0.00
2010,11,16,16,55,0.00
2010,11,16,16,56,0.00
2010,11,16,16,57,0.00
2010,11,16,16,58,0.10
2010,11,16,16,59,0.10
2010,11,16,17,00,0.00
2010,11,16,17,01,0.00
2010,11,16,17,02,0.00
2010,11,16,17,03,0.00
2010,11,16,17,04,0.00
2010,11,16,17,05,0.00
2010,11,16,17,06,0.00
2010,11,16,17,07,0.00
2010,11,16,17,08,0.00
2010,11,16,17,09,0.00
2010,11,16,17,10,0.00
2010,11,16,17,11,1.50
2010,11,16,17,12,0.20
2010,11,16,17,13,0.00
2010,11,16,17,14,0.00
2010,11,16,17,15,0.00
2010,11,16,17,16,0.00
2010,11,16,17,17,0.00
2010,11,16,17,18,0.00
2010,11,16,17,19,0.00
2010,11,16,17,20,0.30
2010,11,16,17,21,0.20
2010,11,16,17,22,0.00
2010,11,16,17,23,0.00
2010,11,16,17,24,0.00
2010,11,16,17,25,0.00
2010,11,16,17,26,0.00
2010,11,16,17,27,0.00
2010,11,16,17,28,2.60
2010,11,16,17,29,3.50
2010,11,16,17,30,2.90
2010,11,16,17,31,1.40
2010,11,16,17,32,1.00
2010,11,16,17,33,0.80
2010,11,16,17,34,0.00
2010,11,16,17,35,0.00
2010,11,16,17,36,0.00
2010,11,16,17,37,0.00
2010,11,16,17,38,0.00
2010,11,16,17,39,0.00
2010,11,16,17,40,0.00
2010,11,16,17,41,0.00
2010,11,16,17,42,0.00
2010,11,16,17,43,0.00
2010,11,16,17,44,0.00
2010,11,16,17,45,0.00
2010,11,16,17,46,0.00
2010,11,16,17,47,0.00
2010,11,16,17,48,0.00
2010,11,16,17,49,0.00
2010,11,16,17,50,0.40
2010,11,16,17,51,0.00
2010,11,16,17,52,0.10
2010,11,16,17,53,0.00
2010,11,16,17,54,0.00
2010,11,16,17,55,0.00
2010,11,16,17,56,0.00
2010,11,16,17,57,0.00
2010,11,16,17,58,0.00
2010,11,16,17,59,0.00
2010,11,16,18,00,0.00
2010,11,16,18,01,0.00
2010,11,16,18,02,0.00
2010,11,16,18,03,0.00